Regional Weather Roundup
Issued by NWS Bismarck, ND

Home | Current Version | Previous Version | Text Only | Print | Product List | Glossary On
Versions: 1 2 3 4 5 6 7 8 9 10 11 12 13 14 15 16 17 18 19 20 21 22 23 24 25 26 27 28 29 30 31 32 33 34 35 36 37 38 39 40 41 42 43 44 45 46 47 48 49 50
000
ASUS43 KBIS 230002
RWRBIS

NWR BROADCAST TEXT
NATIONAL WEATHER SERVICE BISMARCK ND
600 PM CST SUN JAN 22 2017

NOTE: "FAIR" INDICATES FEW OR NO CLOUDS BELOW 12,000 FEET WITH NO
SIGNIFICANT WEATHER AND/OR OBSTRUCTIONS TO VISIBILITY.


CITY           SKY/WX    TMP DP  RH WIND       PRES   REMARKS
WILLISTON      CLOUDY    30  24  78 W9        29.82R
MINOT          CLOUDY    32  29  88 W6        29.78R
MINOT AFB      CLOUDY    30  27  88 NW10      29.77R
BISMARCK       CLOUDY    33  28  81 W12       29.84R
DICKINSON      CLOUDY    26  23  88 W16       29.79S WCI  14
GARRISON         N/A     30  26  85 W14       29.79R WCI  19
HETTINGER ARPT CLOUDY    26  22  84 W17       29.84R WCI  13
JAMESTOWN      CLOUDY    33  28  81 NW16      29.78R
CARRINGTON     CLOUDY    32  30  93 NW14      29.80R
HAZEN          CLOUDY   N/A N/A N/A NW12      29.84R
MANDAN         CLOUDY    30  28  93 NW13      29.83R
STANLEY        CLOUDY    28  28 100 NW12      29.79S WCI  18
WATFORD CITY   CLOUDY    28  25  86 W12       29.82S WCI  18
$$

CITY           SKY/WX    TMP DP  RH WIND       PRES   REMARKS
GRAND FORKS    CLOUDY    33  29  85 SW3       29.76R
GRAND FORKS AF CLOUDY    33  30  89 W5        29.76R
DEVILS LAKE    CLOUDY    29  26  89 W16       29.75S WCI  17
FARGO          CLOUDY    34  31  88 NW8       29.78R FOG
GRAFTON        CLOUDY    32  32 100 SW3       29.77R FOG
GWINNER        CLOUDY    34  32  93 W10       29.79S
$$

CITY           SKY/WX    TMP DP  RH WIND       PRES   REMARKS
ABERDEEN       CLOUDY    30  26  85 W13       29.83S WCI  20
MOBRIDGE       CLOUDY    31  25  78 NW15      29.84R
BUFFALO          N/A     24  20  84 NW7       29.76S WCI  16
RAPID CITY     FAIR      35  24  64 CALM      29.83S
GLASGOW        CLOUDY    30  25  81 W9        29.81S
SIDNEY         CLOUDY    30  24  78 W7        29.84S
WOLF POINT     CLOUDY    31  25  78 W7        29.84R
GLENDIVE       CLOUDY    28  23  81 W7        29.85S
MILES CITY     CLOUDY    24  21  88 S6        29.84F WCI  17
BAKER          CLOUDY    23  21  92 W10       29.84S WCI  12
$$

CITY           SKY/WX    TMP DP  RH WIND       PRES   REMARKS
BILLINGS       FAIR      32  21  64 W5        29.74F
GREAT FALLS    FOG       25  23  92 NE13      29.71R VSB 1/2 WCI  14
$$





USA.gov is the U.S. government's official web portal to all federal, state and local government web resources and services.